STARLINK-32922, 62926

Orbit data source: Space-Track

STARLINK-32922, 62926 is a payload satellite owned by SpaceX/Seattle (US) in LEO that was launched on Sat, 08 Feb 2025 UTC via an FALCON 9 launch vehicle from the Air Force Eastern Test Range (AFETR). Payload-class satellites include a variety of spacecraft equipped with specific instruments for various scientific and technological missions. These include communications satellites like Starlink; space stations such as the ISS; scientific satellites like the Hubble; Earth observation satellites from companies like Planet Labs, Umbra, and HawkEye 360; GPS; miniature CubeSats for education and research; and military/defense satellites.

Loading next visibility...
Identifier
62926, 2025-027V
Orbit
LEO
Last TLE update
6 hours ago
Origin
Manufacturer
SpaceX/Seattle
Mission
Operational Commercial Communications
Bus & Motor
STARLINK V2M, Unknown motor
Mass
730 kg wet, ~700 kg dry
Launch date (UTC)
2025-02-08 (3 months ago)
Launch vehicle
FALCON 9
Launch site
Air Force Eastern Test Range (AFETR)
Object type
Payload
Rocket body
Debris
Shape & HBR
Box + 2 Pan, 29 m
Radar Cross Section
33.884 m², Large (>1 m²)

Expand to show TLE details & history

TLE from 6 hours ago
0 STARLINK-32922
1 62926U 25027V   25129.14017389 -.00001518  00000-0 -45655-4 0  9999
2 62926  43.0003  48.9557 0000949 279.8284  80.2460 15.27575695 14958
Epoch: 2025-05-09T03:21Z
Definitive object data (Epoch: 2025-05-09T03:21:51.024Z)
Latitude
-0.00003°
Longitude
131.29247°
Altitude
482.727 km
Speed
7.626 km/s
True Right ascension
03h 15m 49s
True Declination
0° 00' 00"
Sunlit
Object was in daylight at TLE epoch
Visualization TLE readout
Latitude
8.70404°
Longitude
139.1981°
Altitude
482.143 km
Speed
7.627 km/s
Apparent Right ascension
04h 39m 05s
Apparent Declination
-15° 05' 35"
Sunlit
Object is in daylight
Visualization observer readout
Local Sidereal Time
17:51:10
Azimuth
37.488° NE
Elevation
-60.608°
Doppler factor
1
Orbital elements
Apogee altitude
485.658 km
Perigee altitude
484.356 km
Semi-major axis
6,863.144 km
Eccentricity
0.0000949
Inclination
43.0003°
RAAN
48.9557°
Arg. of periapsis
279.8284°
True anomaly
80.25672°
Mean anomaly
80.246°
Eccentric anomaly
80.25136°
Mean motion
3.81732 °/min
BSTAR
-0.000045655
Orbital period
94.31 mins
Loading maneuver chart data...
Loading SW <> Apogee altitude chart data...
Loading historical data...
Loading historical data...
Loading historical data...
Loading historical data...
Loading historical data...
Loading historical data...
Loading historical data...

STARLINK-32922 Visibility forecast

Observer location: undefined°, undefined°

Span
Click to sort rows by Start time (UTC) header in descending order
Start Az.
Max El. time (UTC)
Max El. Az.
Max El.
End time (UTC)
End Az.
5 mins2025-05-09 22:26:48.523Z227.263° WSW2025-05-09 22:28:48.523Z130.07° SE40.718°2025-05-09 22:31:48.523Z76.506° E
5 mins2025-05-10 00:05:48.523Z286.613° WNW2025-05-10 00:07:48.523Z12.544° NNE38.804°2025-05-10 00:10:48.523Z71.013° E
5 mins2025-05-10 01:44:48.523Z296.637° NW2025-05-10 01:46:48.523Z16.272° NNE41.818°2025-05-10 01:49:48.523Z91.898° ESE
5 mins2025-05-10 03:23:48.523Z265.566° W2025-05-10 03:25:48.523Z200.512° SSW33.708°2025-05-10 03:28:48.523Z138.686° SSE
|